Other Public Products
Issued by NWS Grand Forks, ND

Home | Current Version | Previous Version | Graphics & Text | Print | Product List | Glossary On
Versions: 1 2 3 4 5 6 7 8 9 10 11 12 13 14 15 16 17 18 19 20 21 22 23 24 25 26 27 28 29 30 31 32 33 34 35 36 37 38 39 40 41 42 43 44 45 46 47 48 49 50
000
FPUS83 KFGF 261710
OPUFGF
PRAIRIE TO PINES WEATHER ROUNDUP
NATIONAL WEATHER SERVICE EASTERN NORTH DAKOTA/GRAND FORKS ND
1200 PM CDT THU MAR 26 2015

 **SATELLITE DATA USED TO AUGMENT SKY COVER AT AUTOMATED STATIONS**
 *****  WEATHER ACROSS EASTERN NORTH DAKOTA  *****

CITY           SKY/WX    TMP DP  RH WIND       PRES   REMARKS
GRAND FORKS    MOSUNNY   30  14  51 N15       30.28S WCI  19
GRAND FORKS AF MOSUNNY   30  13  51 NE10      30.28S WCI  21
GRAND CITY NWS   N/A     30 N/A N/A N16         N/A  WCI  19
BUXTON         NOT AVBL
DEVILS LAKE    MOSUNNY   28  18  64 NE8       30.26S WCI  20
FARGO          CLOUDY    29  15  56 N16       30.25F WCI  17
WAHPETON ARPT  PTSUNNY   30  16  55 N15G23    30.23S WCI  19
$$

 *****  WEATHER ACROSS CENTRAL AND WESTERN NORTH DAKOTA  *****

CITY           SKY/WX    TMP DP  RH WIND       PRES   REMARKS
JAMESTOWN      CLOUDY    31  11  43 NE10G20   30.24S WCI  22
BISMARCK       CLOUDY    34  24  67 E10       30.23R
MINOT          PTSUNNY   32  22  66 E6        30.24R
MINOT AFB      PTSUNNY   33  26  76 SE7       30.23S
GARRISON         N/A     35  25  66 SE13      30.21R
WILLISTON      CLOUDY    37  27  67 SE6       30.20R
DICKINSON      CLOUDY    32  28  85 NE6       30.16R
HETTINGER      CLOUDY    36  30  79 NE12      30.16R
$$

 *****  OTHER OBSERVATIONS NORTHEAST NORTH DAKOTA  *****

CITY           SKY/WX    TMP DP  RH WIND       PRES   REMARKS
WALHALLA       NOT AVBL
LANGDON        NOT AVBL
CAVALIER       CLOUDY    27  18  69 N12       30.31S WCI  16
GRAFTON        NOT AVBL
CANDO          NOT AVBL
FORT TOTTEN      N/A     31  16  54 NE5       29.95S
ROLLA          FAIR      27  14  59 NE6       30.26S WCI  20
RUGBY          CLOUDY    28  18  64 E3        30.27R
 ***** THE ABOVE OBSERVATIONS ARE NON NWS ARE NOT QUALITY
        CONTROLLED AND MAY MIS-REPORT RAIN FOR SNOW...
$$

 *****  OTHER OBSERVATIONS SOUTHEAST NORTH DAKOTA *****

CITY           SKY/WX    TMP DP  RH WIND       PRES   REMARKS
COOPERSTOWN    NOT AVBL
VALLEY CITY    MIX PCPN  28  10  47 NE15G21   30.24S WCI  17
OAKES            N/A     30  19  64 N15       30.24S WCI  19
GWINNER        MOSUNNY   32  19  59 N17         N/A  WCI  21
SHEYENNE NWR     N/A     29  14  53 N12       29.95S WCI  19
BUFFALO        NOT AVBL
WYNDMERE       NOT AVBL
 ***** THE ABOVE OBSERVATIONS ARE NON NWS ARE NOT QUALITY
       CONTROLLED AND MAY MIS-REPORT RAIN FOR SNOW...
$$

  *****  WEATHER ACROSS NORTHERN MINNESOTA  *****

CITY           SKY/WX    TMP DP  RH WIND       PRES   REMARKS
FLAG ISLAND    SUNNY     18   0  45 N13       30.25R WCI   4
WARROAD        SUNNY     23   9  54 NE10      30.26R WCI  12
ROSEAU         SUNNY     23  10  58 N14       30.26S WCI  11
HALLOCK        PTSUNNY   27  18  69 N15G22    30.29S WCI  15
THF RVR FALLS  CLOUDY    25  12  58 N15G21    30.25S WCI  12
HALSTAD        NOT AVBL
FOSSTON        PTSUNNY   27  14  59 N20       30.21F WCI  13
BAUDETTE       PTSUNNY   21  12  68 NW17      30.22R WCI   7
WASKISH        SUNNY     27  12  54 NW9       30.20R WCI  17
CROOKSTON      PTSUNNY   27  16  63 N13       30.28R WCI  16
$$
  *****  WEATHER ACROSS CENTRAL AND WEST MINNESOTA  *****

CITY           SKY/WX    TMP DP  RH WIND       PRES   REMARKS
BEMIDJI        MOSUNNY   26  10  49 NW12G20   30.17S WCI  16
PARK RAPIDS      N/A     24  32 100 NW16      30.16R WCI  11
WADENA         FLURRIES  25  18  74 N8        30.16S WCI  16
DETROIT LAKES  MIX PCPN  27  18  69 N7G22     30.20S WCI  19
MOORHEAD       CLOUDY    28  19  69 N17       30.25S WCI  16
FERGUS FALLS   CLOUDY    27  16  63 N16G22    30.23F WCI  14
ELBOW LAKE     CLOUDY    28  17  64 NW14      30.19S WCI  17
MORRIS MN      PTSUNNY   30  19  64 NW20      30.18F WCI  18
STAPLES        CLOUDY    25  12  58 N9        30.16S WCI  15
WHEATON        MOSUNNY   28  18  64 NW15      30.24S WCI  17
$$
  *****  WEATHER ELSEWHERE ACROSS MINNESOTA  *****

CITY           SKY/WX    TMP DP  RH WIND       PRES   REMARKS
DULUTH         MOSUNNY   24  11  57 NW14G21   30.08R WCI  12
INTRNTL FALLS  MOSUNNY   22   8  55 NE9G16    30.18S WCI  12
ELY            SUNNY     19   1  45 NW7G20    30.11S WCI  10
CLOQUET        MOSUNNY   27  10  50 NW14G29   30.10R WCI  15
BRAINERD       CLOUDY    26  12  55 N14G24    30.16R WCI  14
HIBBING        MOSUNNY   23   8  52 N17       30.13S WCI   9
ALEXANDRIA     CLOUDY    27  17  66 N12G18    30.16S WCI  17
SAINT CLOUD    CLOUDY    30  18  60 NW10      30.13S WCI  21
MINNEAPOLIS    PTSUNNY   35  16  45 N13       30.12S
$$

  *****  WEATHER ACROSS SOUTH DAKOTA  *****

CITY           SKY/WX    TMP DP  RH WIND       PRES   REMARKS
SIOUX FALLS    CLOUDY    39  23  52 N12       30.17F
BROOKINGS      NOT AVBL
WATERTOWN      CLOUDY    33  20  58 N12G20    30.17S WCI  24
HURON          CLOUDY    33  24  69 N3        30.20S
SISSETON         N/A     30  21  69 N18       30.22S WCI  18
ABERDEEN       CLOUDY    35  24  64 N15       30.22S
MITCHELL       CLOUDY    35  24  64 CALM      30.21S
PIERRE         SNOW      29  27  92 E9        30.15S VSB 1/2 WCI  20
MOBRIDGE       CLOUDY    35  26  69 CALM      30.17R
RAPID CITY     CLOUDY    50  27  40 NW28G40   30.08R
$$

  *****  SOME WEATHER IN NEARBY STATES *****

CITY           SKY/WX    TMP DP  RH WIND       PRES   REMARKS
GLASGOW MT     MOSUNNY   41  30  65 SE9       30.14R
GREAT FALLS MT MOSUNNY   57  33  40 W25G37    30.11F
CHEYENNE WY    CLOUDY    47  18  31 NW23G33   30.18F
SCOTTSBLUFF NE CLOUDY    48  27  44 NW17      30.16S
OMAHA NE       MOSUNNY   44  24  45 N9        30.21F
DES MOINES IA  MOSUNNY   44  21  40 N18G25    30.15F
DAVENPORT IA   MOSUNNY   41  25  53 NW15G24   30.05F
CHICAGO IL     PTSUNNY   40  26  57 W9        29.96F
EAU CLAIRE WI  CLOUDY    32  18  56 N10G18    30.06R WCI  24
LA CROSSE WI   CLOUDY    34  21  59 NW15      30.06F WCI  24
$$

  *****  SOME NATIONAL WEATHER *****

CITY           SKY/WX    TMP DP  RH WIND       PRES   REMARKS
LA GUARDIA NY  LGT RAIN  49  46  90 VRB6      29.83F FOG
RALEIGH NC     CLOUDY    70  60  70 SW12      29.89F
ATLANTA GA     CLOUDY    70  53  54 W13G21    29.93F
NEW ORLEANS LA LGT RAIN  69  65  86 SW13      29.92R
OKLAHOMA CITY  SUNNY     52  31  44 N17G24    30.22F
ALBUQUERQUE NM MOSUNNY   48  17  29 CALM      30.36S
SALT LAKE CITY MOSUNNY   50  21  32 CALM      30.43R
LOS ANGELES CA SUNNY     79  34  19 E6        30.09R
BOISE ID       SUNNY     48  37  65 VRB3      30.42S
SEATTLE WA     PTSUNNY   58  52  80 W6        30.28S
$$

*** WEATHER ACROSS MANITOBA...SASKATCHEWAN AND ONTARIO ***
                ***ONTARIO***

CITY           SKY/WX    TMP DP  RH WIND       PRES   REMARKS
GERALDTON      MOSUNNY   12   0  57 NW9       30.03S WCI   0
THUNDER BAY    MOSUNNY   21   7  53 NW17      30.11R WCI   7
SIOUX LOOKOUT  MOSUNNY   10  -2  56 N10G17    30.19R WCI  -3
TORONTO        LGT RAIN  37  36  93 SW9       29.80F
BIG TROUT LK   SUNNY      7  -6  56 N13G18    30.20R WCI  -9
PICKLE LAKE    MOSUNNY   10  -6  48 NW7G21    30.11F WCI   0
DRYDEN         SUNNY     14  -2  48 N8G18     30.19S WCI   3
KENORA         NOT AVBL
$$
                *** MANITOBA***

CITY           SKY/WX    TMP DP  RH WIND       PRES   REMARKS
BRANDON          N/A     27  18  69 VRB3      30.31R
DAUPHIN        SUNNY     23  19  86 N7        30.33R WCI  15
ISLAND LAKE    SUNNY      9  -4  56 W7        30.31F WCI  -3
PILOT MOUND      N/A     25  18  74 SW2         N/A
THE PAS        MOSUNNY   21  12  68 S3        30.34S
THOMPSON       SUNNY     16  -8  35 VRB3      30.36S
WINNIPEG       MOSUNNY   23  12  63 N12G17    30.34R WCI  12
LYNN LAKE      SUNNY     16  -4  41 SW5       30.29F WCI   9
GILLAM         SUNNY      7  -6  56 W7        30.34F WCI  -5
$$
                ***SASKATCHEWAN***

CITY           SKY/WX    TMP DP  RH WIND       PRES   REMARKS
ESTEVAN        PTSUNNY   34  23  64 E10       30.22S
KINDERSLEY     CLOUDY    39  30  70 SE12      30.06F
LLOYDMINSTER   CLOUDY    28  27  93 E7        30.04F WCI  21
PRINCE ALBERT  NOT AVBL
REGINA         PTSUNNY   32  25  74 SE14      30.20S WCI  22
YORKTON        SUNNY     25  23  93 E3        30.27R


USA.gov is the U.S. government's official web portal to all federal, state and local government web resources and services.